Tracking 19192 objects as of 19-Jun-2018
HD Live streaming from Space Station
objects crossing your sky now

FENGYUN 1C DEB

Track FENGYUN 1C DEB now!
10-day predictions


NORAD ID: 33599
Int'l Code: 1999-025DCG
Perigee: 504.8 km
Apogee: 940.0 km
Inclination: 96.6 °
Period: 99.1 minutes
Semi major axis: 7093 km
RCS: 0.0095 m2 (small)
Launch date: May 10, 1999
Source: People's Republic of China (PRC)
Launch site: Taiyaun Space Center, China (TSC)

Note: This is SATELLITE DEBRIS
aabbcc
Your satellite tracking list
Your tracking list is empty




NASA's NSSDC Master Catalog

Two Line Element Set (TLE):
1 33599U 99025DCG 18170.29603415  .00000706  00000-0  97336-4 0  9996
2 33599  96.6080   5.7528 0306734 247.4871 109.3596 14.53180667560996
Source of the keplerian elements: AFSPC